Tracking 18984 objects as of 24-Feb-2018
HD Live streaming from Space Station
objects crossing your sky now

FENGYUN 1C DEB

Track FENGYUN 1C DEB now!
10-day predictions


NORAD ID: 36730
Int'l Code: 1999-025EBC
Perigee: 736.9 km
Apogee: 785.8 km
Inclination: 99.6 °
Period: 99.9 minutes
Semi major axis: 7132 km
RCS: 0.0027 m2 (small)
Launch date: May 10, 1999
Source: People's Republic of China (PRC)
Launch site: Taiyaun Space Center, China (TSC)

Note: This is SATELLITE DEBRIS
aabbcc
Your satellite tracking list
Your tracking list is empty




NASA's NSSDC Master Catalog

Two Line Element Set (TLE):
1 36730U 99025EBC 18052.50243234  .00001258  00000-0  40302-3 0  9991
2 36730  99.6380 161.5328 0034298  25.3398  36.7963 14.41306198441873
Source of the keplerian elements: AFSPC